Other Surface Observations
Issued by NWS

Home | Current Version | Previous Version | Text Only | Print | Product List | Glossary On
Versions: 1 2 3 4 5 6 7 8 9 10 11 12 13 14 15 16 17 18 19 20 21 22 23 24 25 26 27 28 29 30 31 32 33 34 35 36 37 38 39 40 41 42 43 44 45 46 47 48 49 50
033
SXUS52 KTAE 231518
OSOTAE
OSOTAE
North Florida/South Alabama/Southwest Georgia Weather Roundup
National Weather Service Tallahassee Florida
1100 AM EDT SAT JUL 23 2016

Note: "fair" indicates few or no clouds below 12,000 feet with no
significant weather and/or obstructions to visibility.

!FLZ017-115-028-034-025-231600
...North Florida...

CITY           SKY/WX    TMP DP  RH WIND       PRES   REMARKS
TALLAHASSEE    MOSUNNY   87  72  60 S3        30.05S HX  93
APALACHICOLA   MOSUNNY   88  76  67 E6        30.03S HX  99
PERRY          SUNNY     87  75  68 NE6       30.05F HX  96
CROSS CITY       N/A     88  75  65 NE5       30.04S HX  97
JACKSONVILLE   MOSUNNY   89  73  59 VRB5      30.04S HX  97
$$

!FLZ112-006-005-002-011-231600
...Florida Panhandle...

CITY           SKY/WX    TMP DP  RH WIND       PRES   REMARKS
MARIANNA       MOSUNNY   86  76  71 SE3       30.04S HX  96
BONIFAY        NOT AVBL
PANAMA CITY NW FAIR      85  74  69 E5        30.03S HX  92
TYNDALL AFB    SUNNY     86  72  63 E6        30.03S HX  92
TYND DRONE APT NOT AVBL
DE FUNIAK SPR  FAIR      84  75  74 CALM      30.05S HX  92
EGLIN AFB      PTSUNNY   84  76  74 E9        30.03R HX  93
DESTIN         PTSUNNY   84  78  82 CALM      30.04R HX  95
HURLBURT       MOSUNNY   84  73  69 CALM      30.02S
CRESTVIEW      MOSUNNY   87  75  67 E5        30.04F HX  96
PENSACOLA      MOSUNNY   86  76  71 CALM      30.02S HX  96
$$

!ALZ063-066-231600
...South Alabama...

CITY           SKY/WX    TMP DP  RH WIND       PRES   REMARKS
DOTHAN         MOSUNNY   84  73  69 CALM      30.08S HX  90
OZARK CAIRNS   SUNNY     83  75  76 CALM      30.04S HX  90
FT RUCKER HELI SUNNY     83  74  74 CALM      30.04S
RUCKER HELI 3  FAIR      84  74  72 CALM      30.06F HX  92
RUCKER HELI 2  FAIR      84  74  71 VRB3      30.04S HX  91
FLORALA APT    PTSUNNY   85  75  72 VRB3      30.06  HX  93
ANDALUSIA      MOSUNNY   88  73  61 CALM      30.04S HX  95
TROY           CLOUDY    83  76  79 CALM      30.06S HX  91
EUFALA         FAIR      85  75  72 SE5       30.04  HX  93
MOBILE         MOSUNNY   85  75  72 CALM      30.03S HX  93
$$

!GAZ120>161-231600
...Southwest and South Central Georgia...

CITY           SKY/WX    TMP DP  RH WIND       PRES   REMARKS
THOMASVILLE      N/A     86  77  74 CALM      30.07S HX  97
BAINBRIDGE     SUNNY     84  72  65 CALM      30.05S
MOODY AFB      MOSUNNY   86  72  63 CALM      30.05S HX  92
VALDOSTA       SUNNY     86  72  62 CALM      30.06R HX  92
MOULTRIE       SUNNY     86  73  66 CALM      30.07R HX  93
BLAKELY        SUNNY     86  73  66 CALM      30.05S HX  93
ALBANY         SUNNY     85  74  69 VRB3      30.07S HX  92
TIFTON         FAIR      86  73  64 CALM      30.06R HX  92
FITZGERALD     FAIR      91  77  65 S3        30.08S HX 104
CORDELE        FAIR      88  75  65 SW6       30.07S HX  98
AMERICUS       FAIR      84  72  65 SE6       30.08S
HOMERVILLE     FAIR      88  73  62 CALM      30.07R HX  96
$$

!GMZ750-755-770-775-231600
...Coastal and Buoy Obs...

STATION/POSITION TIME  TEMP    WIND        PRES    VSBY  WAVE
                       AIR SEA DIR/SP/G                  HT/PER
                 (UTC) (F)     (DEG/KT/KT) (MB)    (MI)  (FT/S)
KEATON BEACH     1500   85     260/  4/  5 1017.1S
CEDAR KEY        1500   81     110/  6/  7 1017.7S
C TOWER          1500   84      50/  5/  6 1017.8R
APALACHICOLA BUO 1450   85 87  160/  8/ 10 1016.7R         1/ 4
PANAMA CITY BUOY 1450   84 87   90/  4/  6 1017.0R         1
MOBILE BUOY      1500   82 88  250/ 10/ 12 1016.5R
ORANGE BCH AL BU 1450   83 89  110/  2/  4 1016.8R         1/ 4
$$




USA.gov is the U.S. government's official web portal to all federal, state and local government web resources and services.